Project,Study,Ord_Occ,Event_Num,Cast_ID,Date_Time_UTC,Date_Time_PST,Lat_Dec,Lon_Dec,Sta_ID,Line,Sta,Depth,Pressure,PrQ,Temp1,Temp1Q,Temp2,Temp2Q,TempAve,Salt1,Salt1Q,Salt1_Corr,Salt2,Salt2Q,Salt2_Corr,SaltAve_Corr,Ox1,Ox1Q,Ox1_CruiseCorr,Ox1_StaCorr,Ox2,Ox2Q,Ox2_CruiseCorr,Ox2_StaCorr,OxAve_StaCorr,Ox1uM,Ox1uM_CruiseCorr,Ox1uM_StaCorr,Ox2uM,Ox2uM_CruiseCorr,Ox2uM_StaCorr,OxAveuM_StaCorr,FluorV,FluorQ,EstChl_CruiseCorr,EstChl_StaCorr,ISUSV,ISUSQ,EstNO3_CruiseCorr,EstNO3_StaCorr,SigThetaTS1,SigThetaTS1Q,SigThetaTS2,SigThetaTS2Q,BAT,XMiss,TransQ,pH,pHQ,SPAR,SPARQ,PAR,PARQ,PoT1,PoT2,DynHt,SVA,OxSat1,OxSat2,BTL_Depth,BTL_Temp,SaltB,OxB,OxBuM,Chl-a,Phaeo,NO3,NO2,NH4,PO4,SIL
CalCOFI,2101RL,076,,2101_076d,03-Feb-2021 09:35:29,03-Feb-2021 01:35:29,35.88046,-122.36677,070.0 060.0,070.0,060.0,3.000,3.022,,12.3230,,12.3233,,12.3232,33.2884,,33.2942,33.2865,,33.2885,33.2914,,,,,,,,,,,,,,,,,0.1605,,1.0670,, ,, , ,25.1988,,25.1973,,0.8691,80.4712,,,,3.5930E+00,,1.0000E-12,,12.3226,12.3229,0.0006,275.934,,,3,,33.2825,6.046,263.84,,,,,,,
CalCOFI,2101RL,076,,2101_076d,03-Feb-2021 09:35:39,03-Feb-2021 01:35:39,35.88046,-122.36680,070.0 060.0,070.0,060.0,4.000,4.029,,12.3222,,12.3226,,12.3224,33.2885,,33.2943,33.2867,,33.2887,33.2915,,,,,,,,,,,,,,,,,0.1531,,1.0063,, ,, , ,25.1990,,25.1975,,0.8721,80.4114,,,,3.7077E+00,,1.0000E-12,,12.3217,12.3221,0.0041,275.937,,,,,,,,,,,,,,
CalCOFI,2101RL,076,,2101_076d,03-Feb-2021 09:35:40,03-Feb-2021 01:35:40,35.88046,-122.36680,070.0 060.0,070.0,060.0,5.000,5.037,,12.3222,,12.3228,,12.3225,33.2884,,33.2942,33.2865,,33.2885,33.2914,,,,,,,,,,,,,,,,,0.1488,,0.9711,, ,, , ,25.1990,,25.1974,,0.8704,80.4436,,,,3.6947E+00,,1.0000E-12,,12.3215,12.3221,0.0068,275.965,,,,,,,,,,,,,,
CalCOFI,2101RL,076,,2101_076d,03-Feb-2021 09:35:41,03-Feb-2021 01:35:41,35.88046,-122.36680,070.0 060.0,070.0,060.0,6.000,6.044,,12.3228,,12.3233,,12.3231,33.2883,,33.2941,33.2863,,33.2883,33.2912,,,,,,,,,,,,,,,,,0.1444,,0.9350,, ,, , ,25.1988,,25.1972,,0.8712,80.4276,,,,3.6947E+00,,1.0000E-12,,12.3220,12.3225,0.0095,276.008,,,,,,,,,,,,,,
CalCOFI,2101RL,076,,2101_076d,03-Feb-2021 09:35:42,03-Feb-2021 01:35:42,35.88046,-122.36680,070.0 060.0,070.0,060.0,7.000,7.052,,12.3226,,12.3230,,12.3228,33.2883,,33.2941,33.2863,,33.2883,33.2912,,,,,,,,,,,,,,,,,0.1447,,0.9375,, ,, , ,25.1989,,25.1973,,0.8711,80.4305,,,,3.6947E+00,,1.0000E-12,,12.3217,12.3221,0.0123,276.027,,,,,,,,,,,,,,
CalCOFI,2101RL,076,,2101_076d,03-Feb-2021 09:35:43,03-Feb-2021 01:35:43,35.88046,-122.36680,070.0 060.0,070.0,060.0,8.000,8.059,,12.3224,,12.3230,,12.3227,33.2883,,33.2941,33.2865,,33.2885,33.2913,,,,,,,,,,,,,,,,,0.1495,,0.9768,, ,, , ,25.1990,,25.1975,,0.8685,80.4833,,,,3.6947E+00,,1.0000E-12,,12.3213,12.3220,0.0151,276.040,,,,,,,,,,,,,,
CalCOFI,2101RL,076,,2101_076d,03-Feb-2021 09:35:44,03-Feb-2021 01:35:44,35.88046,-122.36680,070.0 060.0,070.0,060.0,9.000,9.066,,12.3240,,12.3245,,12.3243,33.2881,,33.2939,33.2863,,33.2883,33.2911,,,,,,,,,,,,,,,,,0.1411,,0.9080,, ,, , ,25.1985,,25.1971,,0.8680,80.4936,,,,3.6947E+00,,1.0000E-12,,12.3229,12.3233,0.0179,276.110,,,,,,,,,,,,,,
CalCOFI,2101RL,076,,2101_076d,03-Feb-2021 09:35:45,03-Feb-2021 01:35:45,35.88046,-122.36680,070.0 060.0,070.0,060.0,10.000,10.074,,12.3245,,12.3248,,12.3247,33.2881,,33.2939,33.2863,,33.2883,33.2911,,,,,,,,,,,,,,,,,0.1497,,0.9785,, ,, , ,25.1984,,25.1970,,0.8711,80.4315,,,,3.6947E+00,,1.0000E-12,,12.3232,12.3235,0.0207,276.144,,,10,,33.2812,6.058,264.36,,,,,,,
CalCOFI,2101RL,076,,2101_076d,03-Feb-2021 09:35:47,03-Feb-2021 01:35:47,35.88046,-122.36682,070.0 060.0,070.0,060.0,11.000,11.081,,12.3251,,12.3256,,12.3254,33.2880,,33.2938,33.2863,,33.2883,33.2911,,,,,,,,,,,,,,,,,0.1468,,0.9547,, ,, , ,25.1983,,25.1969,,0.8705,80.4423,,,,3.6947E+00,,1.0000E-12,,12.3237,12.3242,0.0235,276.183,,,,,,,,,,,,,,
CalCOFI,2101RL,076,,2101_076d,03-Feb-2021 09:35:48,03-Feb-2021 01:35:48,35.88046,-122.36682,070.0 060.0,070.0,060.0,12.000,12.089,,12.3249,,12.3255,,12.3252,33.2881,,33.2939,33.2863,,33.2883,33.2911,,,,,,,,,,,,,,,,,0.1477,,0.9621,, ,, , ,25.1984,,25.1969,,0.8711,80.4298,,,,3.6947E+00,,1.0000E-12,,12.3234,12.3239,0.0262,276.197,,,,,,,,,,,,,,
CalCOFI,2101RL,076,,2101_076d,03-Feb-2021 09:35:49,03-Feb-2021 01:35:49,35.88046,-122.36682,070.0 060.0,070.0,060.0,13.000,13.096,,12.3251,,12.3256,,12.3254,33.2881,,33.2939,33.2863,,33.2883,33.2911,,,,,,,,,,,,,,,,,0.1406,,0.9039,, ,, , ,25.1984,,25.1969,,0.8731,80.3895,,,,3.6947E+00,,1.0000E-12,,12.3234,12.3240,0.0290,276.225,,,,,,,,,,,,,,
CalCOFI,2101RL,076,,2101_076d,03-Feb-2021 09:35:51,03-Feb-2021 01:35:51,35.88046,-122.36682,070.0 060.0,070.0,060.0,14.000,14.103,,12.3247,,12.3241,,12.3244,33.2882,,33.2940,33.2865,,33.2885,33.2913,,,,,,,,,,,,,,,,,0.1438,,0.9301,, ,, , ,25.1986,,25.1974,,0.8693,80.4676,,,,3.6947E+00,,1.0000E-12,,12.3228,12.3222,0.0318,276.232,,,,,,,,,,,,,,
CalCOFI,2101RL,076,,2101_076d,03-Feb-2021 09:35:52,03-Feb-2021 01:35:52,35.88046,-122.36682,070.0 060.0,070.0,060.0,15.000,15.111,,12.3227,,12.3230,,12.3229,33.2886,,33.2944,33.2868,,33.2888,33.2916,,,,,,,,,,,,,,,,,0.1455,,0.9440,, ,, , ,25.1993,,25.1979,,0.8720,80.4126,,,,3.6947E+00,,1.0000E-12,,12.3207,12.3211,0.0346,276.192,,,,,,,,,,,,,,
CalCOFI,2101RL,076,,2101_076d,03-Feb-2021 09:35:54,03-Feb-2021 01:35:54,35.88046,-122.36684,070.0 060.0,070.0,060.0,16.000,16.118,,12.3204,,12.3147,,12.3176,33.2885,,33.2943,33.2879,,33.2899,33.2921,,,,,,,,,,,,,,,,,0.1457,,0.9457,, ,, , ,25.1997,,25.2003,,0.8704,80.4450,,,,3.6947E+00,,1.0000E-12,,12.3183,12.3126,0.0374,276.176,,,,,,,,,,,,,,
CalCOFI,2101RL,076,,2101_076d,03-Feb-2021 09:35:57,03-Feb-2021 01:35:57,35.88046,-122.36684,070.0 060.0,070.0,060.0,17.000,17.126,,12.2983,,12.2983,,12.2983,33.2913,,33.2971,33.2894,,33.2914,33.2943,,,,,,,,,,,,,,,,,0.1466,,0.9531,, ,, , ,25.2061,,25.2047,,0.8756,80.3395,,,,3.6947E+00,,1.0000E-12,,12.2961,12.2961,0.0401,275.596,,,,,,,,,,,,,,
CalCOFI,2101RL,076,,2101_076d,03-Feb-2021 09:36:02,03-Feb-2021 01:36:02,35.88046,-122.36686,070.0 060.0,070.0,060.0,18.000,18.133,,12.3112,,12.3117,,12.3115,33.2894,,33.2952,33.2880,,33.2900,33.2926,,,,,,,,,,,,,,,,,0.1543,,1.0162,, ,, , ,25.2022,,25.2011,,0.8686,80.4799,,,,3.6947E+00,,1.0000E-12,,12.3089,12.3093,0.0429,275.994,,,,,,,,,,,,,,
CalCOFI,2101RL,076,,2101_076d,03-Feb-2021 09:36:06,03-Feb-2021 01:36:06,35.88046,-122.36686,070.0 060.0,070.0,060.0,19.000,19.141,,12.3246,,12.3250,,12.3248,33.2880,,33.2938,33.2865,,33.2885,33.2912,,,,,,,,,,,,,,,,,0.1505,,0.9850,, ,, , ,25.1986,,25.1973,,0.8741,80.3691,,,,3.6649E+00,,1.0000E-12,,12.3222,12.3225,0.0457,276.362,,,,,,,,,,,,,,
CalCOFI,2101RL,076,,2101_076d,03-Feb-2021 09:36:08,03-Feb-2021 01:36:08,35.88046,-122.36686,070.0 060.0,070.0,060.0,20.000,20.148,,12.3193,,12.3195,,12.3194,33.2889,,33.2947,33.2872,,33.2892,33.2920,,,,,,,,,,,,,,,,,0.1556,,1.0268,, ,, , ,25.2003,,25.1990,,0.8710,80.4337,,,,3.5736E+00,,1.0000E-12,,12.3167,12.3169,0.0485,276.221,,,20,,33.2893,-211.813,-9242.45,,,,,,,
CalCOFI,2101RL,076,,2101_076d,03-Feb-2021 09:36:11,03-Feb-2021 01:36:11,35.88046,-122.36688,070.0 060.0,070.0,060.0,21.000,21.155,,12.3102,,12.3102,,12.3102,33.2907,,33.2965,33.2884,,33.2904,33.2935,,,,,,,,,,,,,,,,,0.1749,,1.1849,, ,, , ,25.2035,,25.2016,,0.8802,80.2482,,,,3.6890E+00,,1.0000E-12,,12.3074,12.3075,0.0513,275.945,,,,,,,,,,,,,,
CalCOFI,2101RL,076,,2101_076d,03-Feb-2021 09:36:13,03-Feb-2021 01:36:13,35.88046,-122.36688,070.0 060.0,070.0,060.0,22.000,22.163,,12.2828,,12.2834,,12.2831,33.2926,,33.2984,33.2913,,33.2933,33.2959,,,,,,,,,,,,,,,,,0.1694,,1.1399,, ,, , ,25.2102,,25.2090,,0.8828,80.1957,,,,3.6947E+00,,1.0000E-12,,12.2799,12.2806,0.0540,275.330,,,,,,,,,,,,,,
CalCOFI,2101RL,076,,2101_076d,03-Feb-2021 09:36:15,03-Feb-2021 01:36:15,35.88046,-122.36688,070.0 060.0,070.0,060.0,23.000,23.170,,12.2808,,12.2806,,12.2807,33.2928,,33.2986,33.2910,,33.2930,33.2958,,,,,,,,,,,,,,,,,0.1705,,1.1489,, ,, , ,25.2107,,25.2094,,0.8827,80.1990,,,,3.6947E+00,,1.0000E-12,,12.2778,12.2776,0.0568,275.307,,,,,,,,,,,,,,
CalCOFI,2101RL,076,,2101_076d,03-Feb-2021 09:36:17,03-Feb-2021 01:36:17,35.88046,-122.36688,070.0 060.0,070.0,060.0,24.000,24.178,,12.2741,,12.2767,,12.2754,33.2929,,33.2987,33.2912,,33.2932,33.2960,,,,,,,,,,,,,,,,,0.1689,,1.1358,, ,, , ,25.2121,,25.2103,,0.8866,80.1196,,,,3.6947E+00,,1.0000E-12,,12.2710,12.2736,0.0596,275.202,,,,,,,,,,,,,,
CalCOFI,2101RL,076,,2101_076d,03-Feb-2021 09:36:19,03-Feb-2021 01:36:19,35.88046,-122.36688,070.0 060.0,070.0,060.0,25.000,25.185,,12.2563,,12.2593,,12.2578,33.2942,,33.3000,33.2927,,33.2947,33.2974,,,,,,,,,,,,,,,,,0.1721,,1.1620,, ,, , ,25.2166,,25.2148,,0.8850,80.1514,,,,3.6947E+00,,1.0000E-12,,12.2530,12.2560,0.0624,274.800,,,,,,,,,,,,,,
CalCOFI,2101RL,076,,2101_076d,03-Feb-2021 09:36:20,03-Feb-2021 01:36:20,35.88046,-122.36688,070.0 060.0,070.0,060.0,26.000,26.193,,12.2534,,12.2540,,12.2537,33.2945,,33.3003,33.2925,,33.2945,33.2974,,,,,,,,,,,,,,,,,0.1672,,1.1219,, ,, , ,25.2174,,25.2157,,0.8863,80.1258,,,,3.6947E+00,,1.0000E-12,,12.2500,12.2506,0.0651,274.749,,,,,,,,,,,,,,
CalCOFI,2101RL,076,,2101_076d,03-Feb-2021 09:36:23,03-Feb-2021 01:36:23,35.88045,-122.36690,070.0 060.0,070.0,060.0,27.000,27.200,,12.2267,,12.2291,,12.2279,33.2984,,33.3042,33.2965,,33.2985,33.3014,,,,,,,,,,,,,,,,,0.1685,,1.1325,, ,, , ,25.2255,,25.2236,,0.8924,80.0035,,,,3.6947E+00,,1.0000E-12,,12.2232,12.2256,0.0679,274.004,,,,,,,,,,,,,,
CalCOFI,2101RL,076,,2101_076d,03-Feb-2021 09:36:25,03-Feb-2021 01:36:25,35.88044,-122.36690,070.0 060.0,070.0,060.0,28.000,28.208,,12.2009,,12.2036,,12.2023,33.3016,,33.3074,33.2996,,33.3016,33.3045,,,,,,,,,,,,,,,,,0.1712,,1.1546,, ,, , ,25.2329,,25.2308,,0.8961,79.9299,,,,3.4484E+00,,1.0000E-12,,12.1973,12.2000,0.0706,273.322,,,,,,,,,,,,,,
CalCOFI,2101RL,076,,2101_076d,03-Feb-2021 09:36:27,03-Feb-2021 01:36:27,35.88046,-122.36692,070.0 060.0,070.0,060.0,29.000,29.215,,12.1854,,12.1847,,12.1851,33.3045,,33.3103,33.3028,,33.3048,33.3076,,,,,,,,,,,,,,,,,0.1926,,1.3300,, ,, , ,25.2381,,25.2369,,0.8924,80.0036,,,,3.6966E+00,,1.0000E-12,,12.1817,12.1810,0.0734,272.853,,,,,,,,,,,,,,
CalCOFI,2101RL,076,,2101_076d,03-Feb-2021 09:36:28,03-Feb-2021 01:36:28,35.88046,-122.36692,070.0 060.0,070.0,060.0,30.000,30.223,,12.1791,,12.1792,,12.1792,33.3067,,33.3125,33.3053,,33.3073,33.3099,,,,,,,,,,,,,,,,,0.1721,,1.1620,, ,, , ,25.2410,,25.2399,,0.8935,79.9807,,,,3.6947E+00,,1.0000E-12,,12.1752,12.1753,0.0761,272.601,,,,,,,,,,,,,,
CalCOFI,2101RL,076,,2101_076d,03-Feb-2021 09:36:30,03-Feb-2021 01:36:30,35.88046,-122.36692,070.0 060.0,070.0,060.0,31.000,31.230,,12.1771,,12.1773,,12.1772,33.3082,,33.3140,33.3066,,33.3086,33.3113,,,,,,,,,,,,,,,,,0.1732,,1.1710,, ,, , ,25.2426,,25.2413,,0.8893,80.0656,,,,3.6947E+00,,1.0000E-12,,12.1731,12.1732,0.0789,272.472,,,,,,,,,,,,,,
CalCOFI,2101RL,076,,2101_076d,03-Feb-2021 09:36:33,03-Feb-2021 01:36:33,35.88044,-122.36692,070.0 060.0,070.0,060.0,32.000,32.238,,12.1820,,12.1862,,12.1841,33.3075,,33.3133,33.3048,,33.3068,33.3101,,,,,,,,,,,,,,,,,0.1695,,1.1407,, ,, , ,25.2412,,25.2383,,0.8832,80.1876,,,,3.6947E+00,,1.0000E-12,,12.1779,12.1820,0.0816,272.634,,,,,,,,,,,,,,
CalCOFI,2101RL,076,,2101_076d,03-Feb-2021 09:36:35,03-Feb-2021 01:36:35,35.88044,-122.36692,070.0 060.0,070.0,060.0,33.000,33.245,,12.1691,,12.1693,,12.1692,33.3135,,33.3193,33.3120,,33.3140,33.3167,,,,,,,,,,,,,,,,,0.1607,,1.0686,, ,, , ,25.2483,,25.2471,,0.8711,80.4309,,,,3.5074E+00,,1.0000E-12,,12.1648,12.1650,0.0844,271.984,,,,,,,,,,,,,,
CalCOFI,2101RL,076,,2101_076d,03-Feb-2021 09:36:37,03-Feb-2021 01:36:37,35.88044,-122.36692,070.0 060.0,070.0,060.0,34.000,34.253,,12.1654,,12.1657,,12.1656,33.3184,,33.3242,33.3168,,33.3188,33.3215,,,,,,,,,,,,,,,,,0.1520,,0.9973,, ,, , ,25.2528,,25.2515,,0.8589,80.6759,,,,3.6935E+00,,1.0000E-12,,12.1610,12.1613,0.0871,271.577,,,,,,,,,,,,,,
CalCOFI,2101RL,076,,2101_076d,03-Feb-2021 09:36:38,03-Feb-2021 01:36:38,35.88044,-122.36693,070.0 060.0,070.0,060.0,35.000,35.260,,12.1650,,12.1653,,12.1652,33.3231,,33.3289,33.3213,,33.3233,33.3261,,,,,,,,,,,,,,,,,0.1404,,0.9023,, ,, , ,25.2566,,25.2552,,0.8475,80.9062,,,,3.6947E+00,,1.0000E-12,,12.1604,12.1607,0.0898,271.245,,,,,,,,,,,,,,
CalCOFI,2101RL,076,,2101_076d,03-Feb-2021 09:36:40,03-Feb-2021 01:36:40,35.88044,-122.36694,070.0 060.0,070.0,060.0,36.000,36.268,,12.1639,,12.1642,,12.1641,33.3326,,33.3384,33.3300,,33.3320,33.3352,,,,,,,,,,,,,,,,,0.1353,,0.8605,, ,, , ,25.2641,,25.2621,,0.8320,81.2203,,,,3.6947E+00,,1.0000E-12,,12.1593,12.1595,0.0926,270.554,,,,,,,,,,,,,,
CalCOFI,2101RL,076,,2101_076d,03-Feb-2021 09:36:42,03-Feb-2021 01:36:42,35.88044,-122.36695,070.0 060.0,070.0,060.0,37.000,37.275,,12.1682,,12.1682,,12.1682,33.3398,,33.3456,33.3370,,33.3390,33.3423,,,,,,,,,,,,,,,,,0.1299,,0.8162,, ,, , ,25.2689,,25.2668,,0.8286,81.2899,,,,3.6947E+00,,1.0000E-12,,12.1634,12.1634,0.0953,270.122,,,,,,,,,,,,,,
CalCOFI,2101RL,076,,2101_076d,03-Feb-2021 09:36:45,03-Feb-2021 01:36:45,35.88044,-122.36697,070.0 060.0,070.0,060.0,38.000,38.283,,12.1775,,12.1783,,12.1779,33.3537,,33.3595,33.3530,,33.3550,33.3573,,,,,,,,,,,,,,,,,0.1129,,0.6769,, ,, , ,25.2780,,25.2773,,0.8177,81.5115,,,,3.6947E+00,,1.0000E-12,,12.1726,12.1734,0.0980,269.282,,,,,,,,,,,,,,
CalCOFI,2101RL,076,,2101_076d,03-Feb-2021 09:36:47,03-Feb-2021 01:36:47,35.88046,-122.36698,070.0 060.0,070.0,060.0,39.000,39.290,,12.2020,,12.2010,,12.2015,33.3727,,33.3785,33.3746,,33.3766,33.3776,,,,,,,,,,,,,,,,,0.1369,,0.8736,, ,, , ,25.2882,,25.2898,,0.8137,81.5938,,,,3.6947E+00,,1.0000E-12,,12.1969,12.1960,0.1007,268.348,,,,,,,,,,,,,,
CalCOFI,2101RL,076,,2101_076d,03-Feb-2021 09:36:49,03-Feb-2021 01:36:49,35.88046,-122.36698,070.0 060.0,070.0,060.0,40.000,40.298,,12.2505,,12.2521,,12.2513,33.4281,,33.4339,33.4283,,33.4303,33.4321,,,,,,,,,,,,,,,,,0.1174,,0.7138,, ,, , ,25.3220,,25.3218,,0.8047,81.7764,,,,3.6947E+00,,1.0000E-12,,12.2453,12.2469,0.1034,265.166,,,,,,,,,,,,,,
CalCOFI,2101RL,076,,2101_076d,03-Feb-2021 09:36:50,03-Feb-2021 01:36:50,35.88046,-122.36698,070.0 060.0,070.0,060.0,41.000,41.305,,12.1608,,12.1603,,12.1606,33.4213,,33.4271,33.4204,,33.4224,33.4248,,,,,,,,,,,,,,,,,0.1035,,0.5999,, ,, , ,25.3337,,25.3331,,0.8010,81.8540,,,,3.6947E+00,,1.0000E-12,,12.1555,12.1550,0.1061,264.067,,,,,,,,,,,,,,
CalCOFI,2101RL,076,,2101_076d,03-Feb-2021 09:36:51,03-Feb-2021 01:36:51,35.88047,-122.36699,070.0 060.0,070.0,060.0,42.000,42.313,,12.1324,,12.1316,,12.1320,33.4206,,33.4264,33.4190,,33.4210,33.4237,,,,,,,,,,,,,,,,,0.1095,,0.6491,, ,, , ,25.3386,,25.3375,,0.8000,81.8729,,,,3.6947E+00,,1.0000E-12,,12.1269,12.1262,0.1087,263.627,,,,,,,,,,,,,,
CalCOFI,2101RL,076,,2101_076d,03-Feb-2021 09:36:54,03-Feb-2021 01:36:54,35.88048,-122.36700,070.0 060.0,070.0,060.0,43.000,43.321,,12.1445,,12.1458,,12.1452,33.4275,,33.4333,33.4248,,33.4268,33.4301,,,,,,,,,,,,,,,,,0.0962,,0.5401,, ,, , ,25.3417,,25.3393,,0.7990,81.8949,,,,3.6947E+00,,1.0000E-12,,12.1389,12.1402,0.1114,263.358,,,,,,,,,,,,,,
CalCOFI,2101RL,076,,2101_076d,03-Feb-2021 09:36:56,03-Feb-2021 01:36:56,35.88050,-122.36703,070.0 060.0,070.0,060.0,44.000,44.328,,12.1233,,12.1256,,12.1245,33.4338,,33.4396,33.4321,,33.4341,33.4369,,,,,,,,,,,,,,,,,0.0919,,0.5048,, ,, , ,25.3506,,25.3488,,0.7953,81.9701,,,,3.6947E+00,,1.0000E-12,,12.1176,12.1200,0.1140,262.538,,,,,,,,,,,,,,
CalCOFI,2101RL,076,,2101_076d,03-Feb-2021 09:36:58,03-Feb-2021 01:36:58,35.88050,-122.36704,070.0 060.0,070.0,060.0,45.000,45.336,,12.1163,,12.1191,,12.1177,33.4339,,33.4397,33.4320,,33.4340,33.4369,,,,,,,,,,,,,,,,,0.0923,,0.5081,, ,, , ,25.3520,,25.3500,,0.7952,81.9723,,,,3.6947E+00,,1.0000E-12,,12.1104,12.1133,0.1167,262.422,,,,,,,,,,,,,,
CalCOFI,2101RL,076,,2101_076d,03-Feb-2021 09:37:01,03-Feb-2021 01:37:01,35.88050,-122.36705,070.0 060.0,070.0,060.0,46.000,46.343,,12.1324,,12.1329,,12.1327,33.4461,,33.4519,33.4438,,33.4458,33.4489,,,,,,,,,,,,,,,,,0.0883,,0.4753,, ,, , ,25.3585,,25.3566,,0.7941,81.9939,,,,3.6947E+00,,1.0000E-12,,12.1265,12.1270,0.1193,261.836,,,,,,,,,,,,,,
CalCOFI,2101RL,076,,2101_076d,03-Feb-2021 09:37:03,03-Feb-2021 01:37:03,35.88052,-122.36708,070.0 060.0,070.0,060.0,47.000,47.351,,12.1815,,12.1814,,12.1815,33.4677,,33.4735,33.4657,,33.4677,33.4706,,,,,,,,,,,,,,,,,0.0909,,0.4966,, ,, , ,25.3659,,25.3644,,0.7954,81.9683,,,,3.6947E+00,,1.0000E-12,,12.1754,12.1753,0.1220,261.160,,,,,,,,,,,,,,
CalCOFI,2101RL,076,,2101_076d,03-Feb-2021 09:37:04,03-Feb-2021 01:37:04,35.88052,-122.36708,070.0 060.0,070.0,060.0,48.000,48.358,,12.1717,,12.1720,,12.1719,33.4699,,33.4757,33.4682,,33.4702,33.4730,,,,,,,,,,,,,,,,,0.0945,,0.5261,, ,, , ,25.3695,,25.3681,,0.7925,82.0278,,,,3.6947E+00,,1.0000E-12,,12.1655,12.1658,0.1246,260.846,,,,,,,,,,,,,,
CalCOFI,2101RL,076,,2101_076d,03-Feb-2021 09:37:05,03-Feb-2021 01:37:05,35.88052,-122.36711,070.0 060.0,070.0,060.0,49.000,49.366,,12.1600,,12.1609,,12.1605,33.4707,,33.4765,33.4694,,33.4714,33.4740,,,,,,,,,,,,,,,,,0.0893,,0.4835,, ,, , ,25.3724,,25.3712,,0.7939,81.9991,,,,3.6947E+00,,1.0000E-12,,12.1536,12.1546,0.1272,260.593,,,,,,,,,,,,,,
CalCOFI,2101RL,076,,2101_076d,03-Feb-2021 09:37:07,03-Feb-2021 01:37:07,35.88052,-122.36712,070.0 060.0,070.0,060.0,50.000,50.374,,12.0904,,12.0902,,12.0903,33.4728,,33.4786,33.4719,,33.4739,33.4763,,,,,,,,,,,,,,,,,0.0894,,0.4844,, ,, , ,25.3872,,25.3865,,0.7876,82.1274,,,,3.6947E+00,,1.0000E-12,,12.0840,12.0838,0.1298,259.203,,,,,,,,,,,,,,
CalCOFI,2101RL,076,,2101_076d,03-Feb-2021 09:37:09,03-Feb-2021 01:37:09,35.88053,-122.36712,070.0 060.0,070.0,060.0,51.000,51.381,,12.0355,,12.0295,,12.0325,33.4790,,33.4848,33.4762,,33.4782,33.4815,,,,,,,,,,,,,,,,,0.0751,,0.3672,, ,, , ,25.4024,,25.4013,,0.7815,82.2532,,,,3.6947E+00,,1.0000E-12,,12.0290,12.0229,0.1324,257.778,,,51,,33.4782,5.224,227.93,,,,,,,
CalCOFI,2101RL,076,,2101_076d,03-Feb-2021 09:37:12,03-Feb-2021 01:37:12,35.88053,-122.36712,070.0 060.0,070.0,060.0,52.000,52.389,,11.9825,,11.9844,,11.9835,33.4811,,33.4869,33.4776,,33.4796,33.4833,,,,,,,,,,,,,,,,,0.0745,,0.3623,, ,, , ,25.4141,,25.4110,,0.7839,82.2041,,,,3.6947E+00,,1.0000E-12,,11.9758,11.9777,0.1350,256.693,,,,,,,,,,,,,,
CalCOFI,2101RL,076,,2101_076d,03-Feb-2021 09:37:14,03-Feb-2021 01:37:14,35.88052,-122.36712,070.0 060.0,070.0,060.0,53.000,53.396,,11.9724,,11.9731,,11.9728,33.4802,,33.4860,33.4784,,33.4804,33.4832,,,,,,,,,,,,,,,,,0.0756,,0.3713,, ,, , ,25.4153,,25.4138,,0.7817,82.2482,,,,3.6947E+00,,1.0000E-12,,11.9656,11.9663,0.1376,256.602,,,,,,,,,,,,,,
CalCOFI,2101RL,076,,2101_076d,03-Feb-2021 09:37:16,03-Feb-2021 01:37:16,35.88052,-122.36712,070.0 060.0,070.0,060.0,54.000,54.404,,11.9250,,11.9261,,11.9256,33.4845,,33.4903,33.4827,,33.4847,33.4875,,,,,,,,,,,,,,,,,0.0725,,0.3459,, ,, , ,25.4275,,25.4259,,0.7793,82.2985,,,,3.6947E+00,,1.0000E-12,,11.9181,11.9192,0.1402,255.456,,,,,,,,,,,,,,
CalCOFI,2101RL,076,,2101_076d,03-Feb-2021 09:37:18,03-Feb-2021 01:37:18,35.88052,-122.36712,070.0 060.0,070.0,060.0,55.000,55.412,,11.8916,,11.8920,,11.8918,33.4934,,33.4992,33.4917,,33.4937,33.4965,,,,,,,,,,,,,,,,,0.0701,,0.3262,, ,, , ,25.4407,,25.4394,,0.7764,82.3581,,,,3.6947E+00,,1.0000E-12,,11.8845,11.8850,0.1428,254.224,,,,,,,,,,,,,,
CalCOFI,2101RL,076,,2101_076d,03-Feb-2021 09:37:19,03-Feb-2021 01:37:19,35.88052,-122.36712,070.0 060.0,070.0,060.0,56.000,56.419,,11.8597,,11.8606,,11.8602,33.4994,,33.5052,33.4978,,33.4998,33.5025,,,,,,,,,,,,,,,,,0.0695,,0.3213,, ,, , ,25.4514,,25.4500,,0.7768,82.3488,,,,3.6947E+00,,1.0000E-12,,11.8526,11.8534,0.1453,253.233,,,,,,,,,,,,,,
CalCOFI,2101RL,076,,2101_076d,03-Feb-2021 09:37:21,03-Feb-2021 01:37:21,35.88052,-122.36712,070.0 060.0,070.0,060.0,57.000,57.427,,11.7911,,11.7921,,11.7916,33.5192,,33.5250,33.5168,,33.5188,33.5219,,,,,,,,,,,,,,,,,0.0646,,0.2811,, ,, , ,25.4795,,25.4775,,0.7779,82.3253,,,,3.6947E+00,,1.0000E-12,,11.7839,11.7848,0.1479,250.575,,,,,,,,,,,,,,
CalCOFI,2101RL,076,,2101_076d,03-Feb-2021 09:37:23,03-Feb-2021 01:37:23,35.88052,-122.36710,070.0 060.0,070.0,060.0,58.000,58.435,,11.7032,,11.7200,,11.7116,33.5354,,33.5412,33.5312,,33.5332,33.5372,,,,,,,,,,,,,,,,,0.0583,,0.2295,, ,, , ,25.5085,,25.5021,,0.7772,82.3413,,,,3.6947E+00,,1.0000E-12,,11.6959,11.7127,0.1504,247.839,,,,,,,,,,,,,,
CalCOFI,2101RL,076,,2101_076d,03-Feb-2021 09:37:25,03-Feb-2021 01:37:25,35.88052,-122.36710,070.0 060.0,070.0,060.0,59.000,59.442,,11.6238,,11.6249,,11.6244,33.5454,,33.5512,33.5442,,33.5462,33.5487,,,,,,,,,,,,,,,,,0.0596,,0.2402,, ,, , ,25.5310,,25.5298,,0.7733,82.4221,,,,3.6947E+00,,1.0000E-12,,11.6163,11.6175,0.1529,245.712,,,,,,,,,,,,,,
CalCOFI,2101RL,076,,2101_076d,03-Feb-2021 09:37:27,03-Feb-2021 01:37:27,35.88052,-122.36710,070.0 060.0,070.0,060.0,60.000,60.450,,11.5969,,11.5972,,11.5971,33.5504,,33.5562,33.5482,,33.5502,33.5532,,,,,,,,,,,,,,,,,0.0608,,0.2500,, ,, , ,25.5398,,25.5381,,0.7738,82.4123,,,,3.6947E+00,,1.0000E-12,,11.5894,11.5896,0.1553,244.898,,,,,,,,,,,,,,
CalCOFI,2101RL,076,,2101_076d,03-Feb-2021 09:37:29,03-Feb-2021 01:37:29,35.88052,-122.36710,070.0 060.0,070.0,060.0,61.000,61.457,,11.5130,,11.5164,,11.5147,33.5660,,33.5718,33.5635,,33.5655,33.5687,,,,,,,,,,,,,,,,,0.0590,,0.2353,, ,, , ,25.5674,,25.5648,,0.7745,82.3972,,,,3.6947E+00,,1.0000E-12,,11.5054,11.5088,0.1578,242.294,,,,,,,,,,,,,,
CalCOFI,2101RL,076,,2101_076d,03-Feb-2021 09:37:31,03-Feb-2021 01:37:31,35.88052,-122.36710,070.0 060.0,070.0,060.0,62.000,62.465,,11.3245,,11.3254,,11.3250,33.5877,,33.5935,33.5870,,33.5890,33.5913,,,,,,,,,,,,,,,,,0.0517,,0.1754,, ,, , ,25.6187,,25.6181,,0.7704,82.4819,,,,3.6947E+00,,1.0000E-12,,11.3168,11.3177,0.1602,237.418,,,,,,,,,,,,,,
CalCOFI,2101RL,076,,2101_076d,03-Feb-2021 09:37:33,03-Feb-2021 01:37:33,35.88052,-122.36710,070.0 060.0,070.0,060.0,63.000,63.473,,11.2478,,11.2483,,11.2481,33.5963,,33.6021,33.5924,,33.5944,33.5983,,,,,,,,,,,,,,,,,0.0538,,0.1926,, ,, , ,25.6393,,25.6362,,0.7695,82.4997,,,,3.6947E+00,,1.0000E-12,,11.2401,11.2405,0.1626,235.476,,,,,,,,,,,,,,
CalCOFI,2101RL,076,,2101_076d,03-Feb-2021 09:37:35,03-Feb-2021 01:37:35,35.88052,-122.36711,070.0 060.0,070.0,060.0,64.000,64.480,,11.1673,,11.1679,,11.1676,33.6043,,33.6101,33.6029,,33.6049,33.6075,,,,,,,,,,,,,,,,,0.0512,,0.1713,, ,, , ,25.6601,,25.6589,,0.7671,82.5494,,,,3.6947E+00,,1.0000E-12,,11.1594,11.1601,0.1650,233.519,,,,,,,,,,,,,,
CalCOFI,2101RL,076,,2101_076d,03-Feb-2021 09:37:36,03-Feb-2021 01:37:36,35.88052,-122.36712,070.0 060.0,070.0,060.0,65.000,65.488,,11.0324,,11.0317,,11.0321,33.6022,,33.6080,33.6008,,33.6028,33.6054,,,,,,,,,,,,,,,,,0.0456,,0.1255,, ,, , ,25.6827,,25.6818,,0.7656,82.5801,,,,3.6947E+00,,1.0000E-12,,11.0245,11.0238,0.1673,231.376,,,,,,,,,,,,,,
CalCOFI,2101RL,076,,2101_076d,03-Feb-2021 09:37:37,03-Feb-2021 01:37:37,35.88052,-122.36712,070.0 060.0,070.0,060.0,66.000,66.496,,10.9957,,10.9980,,10.9969,33.6038,,33.6096,33.6016,,33.6036,33.6066,,,,,,,,,,,,,,,,,0.0475,,0.1410,, ,, , ,25.6906,,25.6884,,0.7651,82.5914,,,,3.6947E+00,,1.0000E-12,,10.9876,10.9900,0.1696,230.647,,,,,,,,,,,,,,
CalCOFI,2101RL,076,,2101_076d,03-Feb-2021 09:37:40,03-Feb-2021 01:37:40,35.88052,-122.36710,070.0 060.0,070.0,060.0,67.000,67.503,,11.0104,,10.9847,,10.9976,33.6050,,33.6108,33.6064,,33.6084,33.6096,,,,,,,,,,,,,,,,,0.0451,,0.1214,, ,, , ,25.6889,,25.6945,,0.7640,82.6127,,,,3.6947E+00,,1.0000E-12,,11.0023,10.9766,0.1719,230.833,,,,,,,,,,,,,,
CalCOFI,2101RL,076,,2101_076d,03-Feb-2021 09:37:43,03-Feb-2021 01:37:43,35.88052,-122.36710,070.0 060.0,070.0,060.0,68.000,68.511,,10.9010,,10.9073,,10.9042,33.6050,,33.6108,33.6044,,33.6064,33.6086,,,,,,,,,,,,,,,,,0.0444,,0.1156,, ,, , ,25.7084,,25.7067,,0.7636,82.6220,,,,3.6947E+00,,1.0000E-12,,10.8928,10.8991,0.1743,228.989,,,,,,,,,,,,,,
CalCOFI,2101RL,076,,2101_076d,03-Feb-2021 09:37:45,03-Feb-2021 01:37:45,35.88052,-122.36710,070.0 060.0,070.0,060.0,69.000,69.519,,10.7045,,10.7007,,10.7026,33.5783,,33.5841,33.5782,,33.5802,33.5822,,,,,,,,,,,,,,,,,0.0442,,0.1140,, ,, , ,25.7222,,25.7228,,0.7623,82.6474,,,,3.6947E+00,,1.0000E-12,,10.6963,10.6925,0.1766,227.674,,,69,,33.5431,3.824,166.81,,,,,,,